Regional Weather Roundup
Issued by NWS Little Rock, AR

Home | Current Version | Previous Version | Graphics & Text | Print | Product List | Glossary On
Versions: 1 2 3 4 5 6 7 8 9 10 11 12 13 14 15 16 17 18 19 20 21 22 23 24 25 26 27 28 29 30 31 32 33 34 35 36 37 38 39 40 41 42 43 44 45 46 47
000
ASUS44 KLZK 031005
RWRLZK

WEATHER ROUNDUP FOR ARKANSAS
NATIONAL WEATHER SERVICE LITTLE ROCK AR
500 AM CDT MON AUG 03 2015

NOTE: "FAIR" INDICATES FEW OR NO CLOUDS BELOW 12,000 FEET WITH NO
SIGNIFICANT WEATHER AND/OR OBSTRUCTIONS TO VISIBILITY.

ARZ001-003-010-029-031100-
NORTHWEST ARKANSAS

CITY           SKY/WX    TMP DP  RH WIND       PRES   REMARKS
FAYETTEVILLE   CLEAR     66  66 100 CALM      29.97R
FORT SMITH     CLEAR     74  68  81 NE3       29.91S
HARRISON       CLEAR     66  64  93 CALM      29.97R
BENTONVILLE    CLEAR     70  64  83 CALM      29.96S
ROGERS         PTCLDY    72  70  93 E3        29.97R
SILOAM SPGS    CLEAR     70  63  78 E3        29.95S
HIGHFILL       CLEAR     68  67  96 CALM      29.96R
$$

ARZ004-005-016-031100-
NORTH CENTRAL ARKANSAS

CITY           SKY/WX    TMP DP  RH WIND       PRES   REMARKS
BATESVILLE     CLEAR     73  66  78 CALM      29.91S
FLIPPIN        CLEAR     70  64  83 CALM      29.92S
MTN HOME       CLEAR     69  68  96 CALM      29.93S
$$

ARZ040-041-031100-
WEST CENTRAL ARKANSAS

CITY           SKY/WX    TMP DP  RH WIND       PRES   REMARKS
MENA           PTCLDY    66  63  88 CALM      29.96S
MOUNT IDA      CLEAR     66  64  93 CALM      29.92R
$$

ARZ009-017-025-026-028-031100-
NORTHEAST ARKANSAS

CITY           SKY/WX    TMP DP  RH WIND       PRES   REMARKS
JONESBORO      CLEAR     71  69  93 CALM      29.90R
NEWPORT        CLEAR     76  70  82 SW3       29.91S
WALNUT RIDGE   CLEAR     73  70  88 CALM      29.90S
BLYTHEVILLE    CLEAR     75  72  90 SW5       29.90S
$$

ARZ022-023-033-042-044-031100-
CENTRAL ARKANSAS

CITY           SKY/WX    TMP DP  RH WIND       PRES   REMARKS
LITTLE ROCK    PTCLDY    74  68  81 CALM      29.91S
N LITTLE ROCK    N/A     76  67  75 SW3       29.91S
JACKSONVILLE   CLEAR     70  66  88 W1        29.91R
SEARCY         PTCLDY    70  69  97 CALM      29.93R
HOT SPRINGS    CLEAR     71  64  78 CALM      29.93R
RUSSELLVILLE   CLEAR     69  66  90 CALM      29.92R
$$

ARZ036-031100-
EAST ARKANSAS

CITY           SKY/WX    TMP DP  RH WIND       PRES   REMARKS
WEST MEMPHIS   CLEAR     71  71 100 CALM      29.89S FOG
$$

ARZ050-053-066-070-073-031100-
SOUTHWEST ARKANSAS

CITY           SKY/WX    TMP DP  RH WIND       PRES   REMARKS
ARKADELPHIA    FAIR      69  69 100 CALM      29.91S
CAMDEN         CLEAR     66  64  94 CALM      29.90S
TEXARKANA      MOCLDY    77  63  61 SE5       29.90R
EL DORADO      PTCLDY    69  66  90 CALM      29.91R
DE QUEEN       CLEAR     67  66  97 CALM      29.90R
$$

ARZ056-057-069-031100-
SOUTHEAST ARKANSAS

CITY           SKY/WX    TMP DP  RH WIND       PRES   REMARKS
PINE BLUFF     CLEAR     70  68  93 CALM      29.91R
STUTTGART      CLEAR     73  68  83 MISG      29.90S
MONTICELLO     CLEAR     68  67  96 CALM      29.90S

$$





USA.gov is the U.S. government's official web portal to all federal, state and local government web resources and services.